Flag for U.S.A. Weather past 2 weeks in Toccoa, Georgia, U.S.A.

Now
89 °F

Sunny.


Feels Like: 92 °F
Forecast: 67 / 89 °F
Wind: 5 mph from South

Location: Clemson-Oconee County Airport

Current Time: Sep 1, 2015 at 6:53:10 PM

Latest Report: Sep 1, 2015 at 4:54 PM


Visibility: 10 mi

Pressure: 30.07 "Hg

Humidity: 46%

Dew point: 66 °F

Location of ToccoaLocation

Historic Weather in Toccoa — Graph

°F

Toccoa temperature yesterday

Maximum temperature yesterday: 85 °F (at 2:54 PM)
Minimum temperature yesterday: 63 °F (at 6:54 AM)
Average temperature yesterday: 75 °F

Past Weeks' High & Low Weather Summary

 TemperatureHumidityPressure
High90 °F (Aug 24, 2:54 PM)94% (Aug 19, 4:54 AM)30.22 "Hg (Aug 19, 4:54 AM)
Low63 °F (Aug 31, 6:54 AM)42% (Aug 25, 3:54 PM)29.86 "Hg (Aug 24, 6:54 PM)
Average77 °F72%30.03 "Hg
* Reported Aug 17 4:54 PM — Sep 1 4:54 PM, Toccoa, Weather by CustomWeather, © 2015

Note: Actual official high and low records may vary slightly from our data, if they occured in-between our weather recording intervals... More about our weather records

Advertising

Toccoa weather history for previous 24 hours

 ConditionsComfort  
Time TempWeatherWind HumidityBarometerVisibility
4:54 PM
Tue, Sep 1
89 °FSunny.5 mph46%30.07 "Hg10 mi
3:54 PM88 °FSunny.5 mph46%30.08 "Hg10 mi
2:54 PM90 °FSunny.No wind43%30.09 "Hg10 mi
1:54 PM87 °FSunny.5 mph46%30.10 "Hg10 mi
12:54 PM86 °FSunny.5 mph51%30.11 "Hg10 mi
11:54 AM85 °FSunny.No wind53%30.12 "Hg10 mi
10:54 AM83 °FSunny.3 mph63%30.14 "Hg10 mi
9:54 AM80 °FSunny.No wind69%30.14 "Hg10 mi
8:54 AM75 °FSunny.No wind79%30.14 "Hg10 mi
7:54 AM72 °FClear.No wind87%30.12 "Hg10 mi
6:54 AM70 °FClear.3 mph90%30.10 "Hg10 mi
5:54 AM70 °FClear.No wind90%30.09 "Hg10 mi
4:54 AM71 °FPassing clouds.No wind87%30.08 "Hg10 mi
3:54 AM70 °FClear.No wind90%30.07 "Hg10 mi
2:54 AM71 °FClear.No wind87%30.09 "Hg10 mi
1:54 AM73 °FClear.3 mph79%30.09 "Hg10 mi
12:54 AM72 °FClear.No wind81%30.10 "Hg10 mi
10:54 PM
Mon, Aug 31
75 °FClear.3 mph74%30.10 "Hg10 mi
9:54 PM79 °FClear.5 mph65%30.09 "Hg10 mi
8:54 PM80 °FSunny.5 mph56%30.07 "Hg10 mi
7:54 PM81 °FSunny.5 mph56%30.06 "Hg10 mi
6:54 PM84 °FSunny.No wind51%30.05 "Hg10 mi
Weather by CustomWeather, © 2015

See weather overviewHow to use our weather pages